Location: Dreilärchen
(47.9312°N, 8.6113°E)
Time: 22:17:23
(UTC+00:00)

NOSS 2-2 (D) - Pass Details

Date: 26 May 2022
Orbit: 437 x 1764 km, 63.3° (Epoch: 11 June)

Event Time Altitude Azimuth Distance (km) Brightness Sun altitude
Rises 23:59:26 0° 318° (NW) 2,962 7.6 -20.5°
Reaches altitude 10° 00:01:26 10° 318° (NW) 2,186 6.9 -20.4°
Maximum altitude 00:06:26 84° 232° (SW) 896 4.2 -20.3°
Enters shadow 00:11:38 19° 144° (SE) 2,353 6.1 -20.1°
